CZ-2C DEB (43531 NORAD) Tracking and Keplerian Element Data

This shows tracking and keplerian element data for the satellite.

Feedback or suggestion? Click here.




ElementValue
Catalog43531
NameCZ-2C DEB
Epoch Orbit133
Epoch Day198.70593287
Epoch Year2018
RAAN270.0428
Inclination97.821
Eccentricity0.0142982
Argument of Perigee111.5159
Mean Anonmoly250.1412
Mean Motion15.66948254
Decay Rate0.00051958
L11 43531U 18056C 18198.70593287 .00051958 30480-5 28025-3 0 9992
L22 43531 97.8210 270.0428 0142982 111.5159 250.1412 15.66948254 1339

Live tracking and technical data element details for CZ-2C DEB (NORAD 43531). CZ-2C DEB can be tracked NOW for your location showing map with azimuth and elevation plus other details from your city location.

Track the satellite on the map from your city or location and see movement details for azimuth, elevation, latitude, longitude, range, height, and movement on the map or in text.







IsCatalogInMostPopularTable: catalog: 43531, numindb: 5
Update: records affected: 1



GetName: 43531 CZ-2C DEB

Hit Count: updated at: Thu, 19 Jul 2018 21:14:41 GMT